Alyeska Resort
Hourly Weather - Base Weather Site
ALY_BASE_HR 4/28/2016
CLICK TO VIEW GRAPH!!

        DATE  TIME   Air  BATT   H2o   H2o   Rel
                    Temp  Volt  Inch Since  Hum%
                      F   AVG   1HR  0600   AVG

   4/28/2016 17:00    44 13.78  0.02  0.34    84
   4/28/2016 16:00    45 13.79  0.00  0.32    82
   4/28/2016 15:00    47 13.80  0.02  0.32    73
   4/28/2016 14:00    46 13.80  0.03  0.30    74
   4/28/2016 13:00    46 13.81  0.02  0.27    78
   4/28/2016 12:00    44 13.83  0.03  0.25    83
   4/28/2016 11:00    43 13.86  0.07  0.22    80
   4/28/2016 10:00    43 13.87  0.04  0.15    78
   4/28/2016 09:00    41 13.88  0.03  0.11    88
   4/28/2016 08:00    42 13.89  0.03  0.08    80
   4/28/2016 07:00    42 13.89  0.05  0.05    77
   4/28/2016 06:00    42 13.89  0.03  0.16    78
   4/28/2016 05:00    42 13.88  0.01  0.13    81
   4/28/2016 04:00    41 13.88  0.03  0.12    86
   4/28/2016 03:00    42 13.88  0.05  0.09    81
   4/28/2016 02:00    41 13.87  0.02  0.04    83
   4/28/2016 01:00    43 13.86  0.01  0.02    72
   4/27/2016 24:00    43 13.85  0.01  0.01    69
   4/27/2016 23:00    43 13.84  0.00  0.00    66
   4/27/2016 22:00    43 13.81  0.00  0.00    71
   4/27/2016 21:00    45 13.79  0.00  0.00    65
   4/27/2016 20:00    46 13.75  0.00  0.00    63
   4/27/2016 19:00    48 13.70  0.00  0.00    54
   4/27/2016 18:00    46 13.71  0.00  0.00    64


CLICK TO VIEW GRAPH!!